Location: *
(17.3280°S, 114.7300°W)
Time: 15:20:58
(UTC+00:00)

Hubble Space Telescope - Pass Details

Date: 03 November 2020
Orbit: 536 x 540 km, 28.5° (Epoch: 29 November)

Event Time Altitude Azimuth Distance (km) Brightness Sun altitude
Rises 03:59:06 0° 280° (W) 2,673 5.0 -30.2°
Reaches altitude 10° 04:01:26 10° 274° (W) 1,785 4.0 -30.7°
Enters shadow 04:03:10 23° 262° (W) 1,177 3.0 -31.1°
